Weather in Sukhobuzimskoe

Russia / Krasnoyarsk Krai     56°30′04″N   93°16′29″E
temp.,
°C
wind,
m/s
gust,
m/s
humid.,
%
clouds,
%
prec.,
mm/h
press.,
hPa
HPBL,
m
16 may, sun
sun1601:00+10nw4695100 13.5 1013433
04:00+8nnw4786100 0.1 1015432
07:00+7n3576100 0.1 1017367
10:00+9n2262100 0.0 1016682
13:00+11n2258100 0.0 1015988
16:00+11ne3362100 0.1 1012667
19:00+6ne3690100 9.1 1012448
22:00+6n3680100 0.4 1012376
17 may, mon
mon1701:00+5nnw248062 0.4 1013122
04:00+2nnw22785 0.0 101417
07:00+5nnw236673 0.0 1016227
10:00+9nnw33517 0.0 1016882
13:00+11nw2341100 0.0 10151637
16:00+11nw3438100 0.0 10151712
19:00+11nnw354781 0.0 1015542
22:00+7nw115499 0.0 101510
18 may, tue
tue1801:00+6wsw2259100 0.0 101416
04:00+6ssw1164100 0.0 101312
07:00+7ssw1265100 0.0 1012146
10:00+6ese3584100 0.5 1009367
13:00+6ese4695100 5.3 1007338
16:00+7ene3693100 0.3 1006377
19:00+7nne2491100 0.3 1005213
22:00+6ene1192100 0.0 100527
19 may, wed
wed1901:00+5nne1194100 0.0 100511
04:00+3nne119693 0.0 100512
07:00+6ne1283100 0.0 1006164
10:00+10ese2369100 0.0 1005629
13:00+11ene2262100 0.1 10021042
16:00+9ne3581100 1.4 1000852
19:00+7n5891100 5.5 999541
22:00+6n61188100 2.9 999837
20 may, thu
thu2001:00+5n5989100 5.1 999774
04:00+3nw71194100 1.9 1002765
07:00+2wnw6107959 2.4 1006767
10:00+5wnw676084 0.0 10081492
13:00+7wnw5641100 0.1 10102271
16:00+7wnw564499 0.1 10111932
19:00+7nw344978 0.1 10121686
22:00+3wnw237099 0.1 101545